| time (UTC) | temp C | wind direction | speed KPH | gust KPH | rain 1hr cm | rain 24hr cm | rain mn cm | humidity % | barometer mb |
| 20260507004510 | 1 | 355 | 4.8 | 12.9 | 0.00 | 0.00 | 0.00 | 65 | 1014.0 |
| 20260507003010 | 1 | 355 | 4.8 | 9.7 | 0.00 | 0.00 | 0.00 | 64 | 1014.0 |
| 20260507001509 | 1 | 355 | 8.0 | 12.9 | 0.00 | 0.00 | 0.00 | 64 | 1013.9 |
| 20260507000009 | 1 | 355 | 4.8 | 9.7 | 0.00 | 0.00 | 0.00 | 63 | 1013.8 |
| 20260506234518 | 2 | 355 | 3.2 | 8.0 | 0.00 | 0.00 | 0.00 | 61 | 1013.7 |
| 20260506233011 | 2 | 355 | 6.4 | 9.7 | 0.00 | 0.00 | 0.00 | 61 | 1013.7 |
| 20260506231509 | 2 | 355 | 3.2 | 9.7 | 0.00 | 0.00 | 0.00 | 58 | 1013.7 |
| 20260506230010 | 2 | 360 | 3.2 | 6.4 | 0.00 | 0.00 | 0.00 | 58 | 1013.6 |
| 20260506224510 | 3 | 5 | 1.6 | 9.7 | 0.00 | 0.00 | 0.00 | 55 | 1013.5 |
| 20260506223010 | 3 | 5 | 3.2 | 12.9 | 0.00 | 0.00 | 0.00 | 51 | 1013.5 |
| 20260506221509 | 3 | 5 | 3.2 | 9.7 | 0.00 | 0.00 | 0.00 | 53 | 1013.4 |
| 20260506220020 | 5 | 9 | 3.2 | 12.9 | 0.00 | 0.00 | 0.00 | 47 | 1013.3 |
| 20260506214510 | 5 | 11 | 8.0 | 12.9 | 0.00 | 0.00 | 0.00 | 43 | 1013.1 |
| 20260506213009 | 6 | 21 | 9.7 | 16.1 | 0.00 | 0.00 | 0.00 | 42 | 1013.1 |
| 20260506211514 | 6 | 14 | 9.7 | 17.7 | 0.00 | 0.00 | 0.00 | 41 | 1012.9 |
| 20260506210012 | 6 | 16 | 8.0 | 14.5 | 0.00 | 0.00 | 0.00 | 40 | 1012.8 |
| 20260506204509 | 6 | 351 | 8.0 | 14.5 | 0.00 | 0.00 | 0.00 | 40 | 1012.7 |
| 20260506201510 | 7 | 345 | 8.0 | 12.9 | 0.00 | 0.00 | 0.00 | 38 | 1012.5 |
| 20260506200020 | 7 | 344 | 3.2 | 14.5 | 0.00 | 0.00 | 0.00 | 36 | 1012.3 |
| 20260506194509 | 7 | 336 | 4.8 | 16.1 | 0.00 | 0.00 | 0.00 | 35 | 1012.3 |
| 20260506193009 | 8 | 338 | 8.0 | 16.1 | 0.00 | 0.00 | 0.00 | 33 | 1012.3 |
| 20260506191510 | 8 | 329 | 4.8 | 12.9 | 0.00 | 0.00 | 0.00 | 33 | 1012.1 |
| 20260506190002 | 8 | 328 | 8.0 | 12.9 | 0.00 | 0.00 | 0.00 | 36 | 1012.0 |
| 20260506184505 | 9 | 101 | 0.0 | 3.2 | 0.00 | 0.00 | 0.00 | 48 | 1011.8 |
| 20260506183009 | 8 | 101 | 0.0 | 3.2 | 0.00 | 0.00 | 0.00 | 53 | 1011.8 |
| 20260506181516 | 8 | 101 | 3.2 | 9.7 | 0.00 | 0.00 | 0.00 | 55 | 1011.5 |
| 20260506180016 | 9 | 111 | 1.6 | 9.7 | 0.00 | 0.00 | 0.00 | 53 | 1011.3 |
| 20260506174510 | 8 | 145 | 6.4 | 17.7 | 0.00 | 0.00 | 0.00 | 55 | 1011.3 |
| 20260506173009 | 9 | 117 | 3.2 | 14.5 | 0.00 | 0.00 | 0.00 | 53 | 1011.3 |
| 20260506171509 | 10 | 129 | 8.0 | 19.3 | 0.00 | 0.00 | 0.00 | 45 | 1011.3 |
| 20260506170009 | 10 | 108 | 9.7 | 22.5 | 0.00 | 0.00 | 0.00 | 46 | 1011.3 |
| 20260506164511 | 10 | 138 | 9.7 | 17.7 | 0.00 | 0.00 | 0.00 | 40 | 1011.3 |
| 20260506163010 | 10 | 167 | 11.3 | 19.3 | 0.00 | 0.00 | 0.00 | 39 | 1011.4 |
| 20260506161511 | 10 | 173 | 12.9 | 17.7 | 0.00 | 0.00 | 0.00 | 36 | 1011.3 |
| 20260506154509 | 10 | 170 | 6.4 | 24.1 | 0.00 | 0.00 | 0.00 | 34 | 1011.4 |
| 20260506153009 | 10 | 187 | 12.9 | 20.9 | 0.00 | 0.00 | 0.00 | 33 | 1011.5 |
| 20260506150010 | 10 | 166 | 14.5 | 32.2 | 0.00 | 0.00 | 0.00 | 33 | 1011.6 |
| 20260506144510 | 9 | 177 | 12.9 | 24.1 | 0.00 | 0.00 | 0.00 | 35 | 1011.6 |
| 20260506143010 | 10 | 161 | 14.5 | 24.1 | 0.00 | 0.00 | 0.00 | 32 | 1011.7 |
| 20260506141509 | 10 | 170 | 16.1 | 22.5 | 0.00 | 0.00 | 0.00 | 31 | 1011.7 |
| 20260506140010 | 10 | 208 | 12.9 | 25.7 | 0.00 | 0.00 | 0.00 | 31 | 1011.8 |
| 20260506134509 | 10 | 197 | 16.1 | 24.1 | 0.00 | 0.00 | 0.00 | 32 | 1011.9 |
| 20260506133013 | 10 | 180 | 8.0 | 24.1 | 0.00 | 0.00 | 0.00 | 32 | 1011.9 |
| 20260506131516 | 9 | 180 | 12.9 | 27.4 | 0.00 | 0.00 | 0.00 | 34 | 1011.9 |
| 20260506130015 | 9 | 216 | 11.3 | 24.1 | 0.00 | 0.00 | 0.00 | 35 | 1012.0 |
| 20260506124509 | 9 | 205 | 14.5 | 32.2 | 0.00 | 0.00 | 0.00 | 37 | 1012.0 |
| 20260506123009 | 9 | 206 | 14.5 | 25.7 | 0.00 | 0.00 | 0.00 | 37 | 1012.1 |
| 20260506121510 | 8 | 148 | 17.7 | 27.4 | 0.00 | 0.00 | 0.00 | 35 | 1012.1 |
| 20260506120010 | 8 | 201 | 16.1 | 25.7 | 0.00 | 0.00 | 0.00 | 34 | 1012.2 |
| 20260506114511 | 9 | 167 | 11.3 | 24.1 | 0.00 | 0.00 | 0.00 | 33 | 1012.3 |
| 20260506113010 | 8 | 125 | 14.5 | 27.4 | 0.00 | 0.00 | 0.00 | 32 | 1012.2 |
| 20260506111510 | 8 | 150 | 14.5 | 25.7 | 0.00 | 0.00 | 0.00 | 32 | 1012.2 |
| 20260506110010 | 9 | 184 | 12.9 | 24.1 | 0.00 | 0.00 | 0.00 | 29 | 1012.3 |
| 20260506104511 | 10 | 169 | 12.9 | 20.9 | 0.00 | 0.00 | 0.00 | 28 | 1012.2 |
| 20260506103023 | 12 | 44 | 0.0 | 19.3 | 0.00 | 0.00 | 0.00 | 16 | 1012.2 |
| 20260506101511 | 12 | 348 | 6.4 | 17.7 | 0.00 | 0.00 | 0.00 | 17 | 1012.3 |
| 20260506100010 | 12 | 348 | 0.0 | 12.9 | 0.00 | 0.00 | 0.00 | 15 | 1012.5 |
| 20260506094525 | 11 | 19 | 6.4 | 17.7 | 0.00 | 0.00 | 0.00 | 18 | 1012.4 |
| 20260506093009 | 12 | 31 | 4.8 | 14.5 | 0.00 | 0.00 | 0.00 | 20 | 1012.5 |
| 20260506091509 | 11 | 74 | 4.8 | 9.7 | 0.00 | 0.00 | 0.00 | 20 | 1012.6 |
| 20260506090009 | 11 | 76 | 0.0 | 6.4 | 0.00 | 0.00 | 0.00 | 24 | 1012.7 |
| 20260506084510 | 11 | 14 | 1.6 | 12.9 | 0.00 | 0.00 | 0.00 | 25 | 1012.6 |
| 20260506083010 | 9 | 76 | 4.8 | 9.7 | 0.00 | 0.00 | 0.00 | 28 | 1012.8 |
| 20260506081510 | 9 | 73 | 3.2 | 12.9 | 0.00 | 0.00 | 0.00 | 28 | 1012.8 |
| 20260506073009 | 9 | 30 | 1.6 | 9.7 | 0.00 | 0.00 | 0.00 | 31 | 1012.8 |
| 20260506071510 | 7 | 27 | 3.2 | 14.5 | 0.00 | 0.00 | 0.00 | 39 | 1012.8 |
| 20260506061510 | 5 | 19 | 6.4 | 14.5 | 0.00 | 0.00 | 0.00 | 49 | 1012.8 |
| 20260506044517 | 0 | 16 | 8.0 | 12.9 | 0.00 | 0.00 | 0.00 | 73 | 1013.1 |
| 20260506043014 | -1 | 355 | 4.8 | 12.9 | 0.00 | 0.00 | 0.00 | 75 | 1013.1 |
| 20260506041510 | -1 | 350 | 6.4 | 9.7 | 0.00 | 0.00 | 0.00 | 76 | 1013.1 |
| 20260506040009 | -1 | 350 | 4.8 | 9.7 | 0.00 | 0.00 | 0.00 | 78 | 1013.0 |
| 20260506034510 | -1 | 348 | 6.4 | 12.9 | 0.00 | 0.00 | 0.00 | 78 | 1012.9 |
| 20260506033009 | -1 | 350 | 4.8 | 9.7 | 0.00 | 0.00 | 0.00 | 79 | 1012.9 |
| 20260506031514 | -1 | 351 | 6.4 | 12.9 | 0.00 | 0.00 | 0.00 | 78 | 1012.7 |
| 20260506030010 | -1 | 355 | 6.4 | 12.9 | 0.00 | 0.00 | 0.00 | 77 | 1012.7 |
| 20260506024510 | -1 | 355 | 6.4 | 9.7 | 0.00 | 0.00 | 0.00 | 77 | 1012.7 |
| 20260506023010 | -1 | 355 | 8.0 | 12.9 | 0.00 | 0.00 | 0.00 | 75 | 1012.8 |
| 20260506021509 | -1 | 360 | 8.0 | 12.9 | 0.00 | 0.00 | 0.00 | 76 | 1012.8 |
| 20260506020010 | -1 | 360 | 8.0 | 9.7 | 0.00 | 0.00 | 0.00 | 76 | 1012.7 |
| 20260506014511 | -1 | 355 | 6.4 | 8.0 | 0.00 | 0.00 | 0.00 | 75 | 1012.7 |
| 20260506013011 | -1 | 360 | 8.0 | 12.9 | 0.00 | 0.00 | 0.00 | 73 | 1012.6 |
| 20260506011510 | -1 | 355 | 9.7 | 12.9 | 0.00 | 0.00 | 0.00 | 73 | 1012.6 |
| 20260506010011 | -1 | 355 | 9.7 | 12.9 | 0.00 | 0.00 | 0.00 | 72 | 1012.6 |